owner,sensor,date,latitude,longitude,vertical_datum,wind_speed,wind_to_direction,wind_speed_of_gust,qcFlag 
TCOON,ioos:station:TCOON:003:1,2011-11-01T00:00:00Z,26.8015,-97.4706,0.0,5.6,83.0,6.7,'11111222,11111222,11111222' 
TCOON,ioos:station:TCOON:003:1,2011-11-01T01:00:00Z,26.8015,-97.4706,0.0,4.0,89.0,4.4,'11111222,11111222,11111222' 
TCOON,ioos:station:TCOON:003:1,2011-11-01T02:00:00Z,26.8015,-97.4706,0.0,4.4,97.0,5.0,'11111222,11111222,11111222' 
TCOON,ioos:station:TCOON:003:1,2011-11-01T03:00:00Z,26.8015,-97.4706,0.0,3.0,108.0,3.5,'11111222,11111222,11111222' 
TCOON,ioos:station:TCOON:003:1,2011-11-01T04:00:00Z,26.8015,-97.4706,0.0,3.2,137.0,3.5,'11111222,11111222,11111222' 
TCOON,ioos:station:TCOON:003:1,2011-11-01T05:00:00Z,26.8015,-97.4706,0.0,3.4,127.0,3.9,'11111222,11111222,11111222' 
TCOON,ioos:station:TCOON:003:1,2011-11-01T06:00:00Z,26.8015,-97.4706,0.0,4.0,129.0,4.5,'11111222,11111222,11111222' 
TCOON,ioos:station:TCOON:003:1,2011-11-01T07:00:00Z,26.8015,-97.4706,0.0,4.2,126.0,4.5,'11111222,11111222,11111222' 
TCOON,ioos:station:TCOON:003:1,2011-11-01T08:00:00Z,26.8015,-97.4706,0.0,3.0,136.0,3.3,'11111222,11111222,11111222' 
TCOON,ioos:station:TCOON:003:1,2011-11-01T09:00:00Z,26.8015,-97.4706,0.0,0.8,251.0,1.5,'11111222,11111222,11111222' 
TCOON,ioos:station:TCOON:003:1,2011-11-01T10:00:00Z,26.8015,-97.4706,0.0,1.9,297.0,2.0,'11111222,11111222,11111222' 
TCOON,ioos:station:TCOON:003:1,2011-11-01T11:00:00Z,26.8015,-97.4706,0.0,1.6,302.0,1.7,'11111222,11111222,11111222' 
TCOON,ioos:station:TCOON:003:1,2011-11-01T12:00:00Z,26.8015,-97.4706,0.0,1.0,318.0,1.2,'11111222,11111222,11111222' 
TCOON,ioos:station:TCOON:003:1,2011-11-01T13:00:00Z,26.8015,-97.4706,0.0,1.4,310.0,1.6,'11111222,11111222,11111222' 
TCOON,ioos:station:TCOON:003:1,2011-11-01T14:00:00Z,26.8015,-97.4706,0.0,0.6,224.0,0.8,'11111222,11111222,11111222' 
TCOON,ioos:station:TCOON:003:1,2011-11-01T15:00:00Z,26.8015,-97.4706,0.0,2.6,160.0,3.0,'11111222,11111222,11111222' 
TCOON,ioos:station:TCOON:003:1,2011-11-01T16:00:00Z,26.8015,-97.4706,0.0,3.7,168.0,4.0,'11111222,11111222,11111222' 
TCOON,ioos:station:TCOON:003:1,2011-11-01T17:00:00Z,26.8015,-97.4706,0.0,3.5,160.0,4.1,'11111222,11111222,11111222' 
TCOON,ioos:station:TCOON:003:1,2011-11-01T18:00:00Z,26.8015,-97.4706,0.0,4.2,150.0,4.9,'11111222,11111222,11111222' 
TCOON,ioos:station:TCOON:003:1,2011-11-01T19:00:00Z,26.8015,-97.4706,0.0,5.4,118.0,6.5,'11111222,11111222,11111222' 
TCOON,ioos:station:TCOON:003:1,2011-11-01T20:00:00Z,26.8015,-97.4706,0.0,6.5,115.0,8.1,'11111222,11111222,11111222' 
TCOON,ioos:station:TCOON:003:1,2011-11-01T21:00:00Z,26.8015,-97.4706,0.0,6.9,102.0,8.3,'11111222,11111222,11111222' 
TCOON,ioos:station:TCOON:003:1,2011-11-01T22:00:00Z,26.8015,-97.4706,0.0,6.5,113.0,8.4,'11111222,11111222,11111222' 
TCOON,ioos:station:TCOON:003:1,2011-11-01T23:00:00Z,26.8015,-97.4706,0.0,6.0,114.0,6.9,'11111222,11111222,11111222' 
TCOON,ioos:station:TCOON:003:1,2011-11-02T00:00:00Z,26.8015,-97.4706,0.0,5.2,120.0,5.8,'11111222,11111222,11111222' 
TCOON,ioos:station:TCOON:003:1,2011-11-02T01:00:00Z,26.8015,-97.4706,0.0,5.4,130.0,6.3,'11111222,11111222,11111222' 
TCOON,ioos:station:TCOON:003:1,2011-11-02T02:00:00Z,26.8015,-97.4706,0.0,5.2,134.0,6.1,'11111222,11111222,11111222' 
TCOON,ioos:station:TCOON:003:1,2011-11-02T03:00:00Z,26.8015,-97.4706,0.0,4.4,145.0,5.0,'11111222,11111222,11111222' 
TCOON,ioos:station:TCOON:003:1,2011-11-02T04:00:00Z,26.8015,-97.4706,0.0,5.5,163.0,6.1,'11111222,11111222,11111222' 
TCOON,ioos:station:TCOON:003:1,2011-11-02T05:00:00Z,26.8015,-97.4706,0.0,3.1,180.0,4.0,'11111222,11111222,11111222' 
TCOON,ioos:station:TCOON:003:1,2011-11-02T06:00:00Z,26.8015,-97.4706,0.0,2.2,184.0,2.7,'11111222,11111222,11111222' 
TCOON,ioos:station:TCOON:003:1,2011-11-02T07:00:00Z,26.8015,-97.4706,0.0,3.6,154.0,4.9,'11111222,11111222,11111222' 
TCOON,ioos:station:TCOON:003:1,2011-11-02T08:00:00Z,26.8015,-97.4706,0.0,4.1,164.0,4.6,'11111222,11111222,11111222' 
TCOON,ioos:station:TCOON:003:1,2011-11-02T09:00:00Z,26.8015,-97.4706,0.0,4.6,151.0,5.5,'11111222,11111222,11111222' 
TCOON,ioos:station:TCOON:003:1,2011-11-02T10:00:00Z,26.8015,-97.4706,0.0,3.4,142.0,4.0,'11111222,11111222,11111222' 
TCOON,ioos:station:TCOON:003:1,2011-11-02T11:00:00Z,26.8015,-97.4706,0.0,2.8,135.0,3.2,'11111222,11111222,11111222' 
TCOON,ioos:station:TCOON:003:1,2011-11-02T12:00:00Z,26.8015,-97.4706,0.0,1.7,104.0,1.8,'11111222,11111222,11111222' 
TCOON,ioos:station:TCOON:003:1,2011-11-02T13:00:00Z,26.8015,-97.4706,0.0,2.7,128.0,3.0,'11111222,11111222,11111222' 
TCOON,ioos:station:TCOON:003:1,2011-11-02T14:00:00Z,26.8015,-97.4706,0.0,4.4,132.0,5.4,'11111222,11111222,11111222' 
TCOON,ioos:station:TCOON:003:1,2011-11-02T15:00:00Z,26.8015,-97.4706,0.0,6.7,146.0,7.7,'11111222,11111222,11111222' 
TCOON,ioos:station:TCOON:003:1,2011-11-02T16:00:00Z,26.8015,-97.4706,0.0,7.3,143.0,8.6,'11111222,11111222,11111222' 
TCOON,ioos:station:TCOON:003:1,2011-11-02T17:00:00Z,26.8015,-97.4706,0.0,8.1,148.0,9.2,'11111222,11111222,11111222' 
TCOON,ioos:station:TCOON:003:1,2011-11-02T18:00:00Z,26.8015,-97.4706,0.0,8.6,132.0,10.5,'11111222,11111222,11111222' 
TCOON,ioos:station:TCOON:003:1,2011-11-02T19:00:00Z,26.8015,-97.4706,0.0,9.6,132.0,11.4,'11111222,11111222,11111222' 
TCOON,ioos:station:TCOON:003:1,2011-11-02T20:00:00Z,26.8015,-97.4706,0.0,9.5,124.0,10.7,'11111222,11111222,11111222' 
TCOON,ioos:station:TCOON:003:1,2011-11-02T21:00:00Z,26.8015,-97.4706,0.0,10.1,121.0,12.4,'11111222,11111222,11111222' 
TCOON,ioos:station:TCOON:003:1,2011-11-02T22:00:00Z,26.8015,-97.4706,0.0,10.0,121.0,11.9,'11111222,11111222,11111222' 
TCOON,ioos:station:TCOON:003:1,2011-11-02T23:00:00Z,26.8015,-97.4706,0.0,9.2,122.0,11.1,'11111222,11111222,11111222' 
TCOON,ioos:station:TCOON:003:1,2011-11-03T00:00:00Z,26.8015,-97.4706,0.0,7.3,130.0,8.5,'11111222,11111222,11111222' 
TCOON,ioos:station:TCOON:003:1,2011-11-03T01:00:00Z,26.8015,-97.4706,0.0,5.6,127.0,6.7,'11111222,11111222,11111222' 
TCOON,ioos:station:TCOON:003:1,2011-11-03T02:00:00Z,26.8015,-97.4706,0.0,5.2,127.0,6.2,'11111222,11111222,11111222' 
TCOON,ioos:station:TCOON:003:1,2011-11-03T03:00:00Z,26.8015,-97.4706,0.0,5.3,134.0,6.0,'11111222,11111222,11111222' 
TCOON,ioos:station:TCOON:003:1,2011-11-03T04:00:00Z,26.8015,-97.4706,0.0,3.0,110.0,3.3,'11111222,11111222,11111222' 
TCOON,ioos:station:TCOON:003:1,2011-11-03T05:00:00Z,26.8015,-97.4706,0.0,4.0,126.0,4.6,'11111222,11111222,11111222' 
TCOON,ioos:station:TCOON:003:1,2011-11-03T06:00:00Z,26.8015,-97.4706,0.0,4.3,141.0,4.8,'11111222,11111222,11111222' 
TCOON,ioos:station:TCOON:003:1,2011-11-03T07:00:00Z,26.8015,-97.4706,0.0,2.4,290.0,2.6,'11111222,11111222,11111222' 
TCOON,ioos:station:TCOON:003:1,2011-11-03T08:00:00Z,26.8015,-97.4706,0.0,2.1,291.0,2.5,'11111222,11111222,11111222' 
TCOON,ioos:station:TCOON:003:1,2011-11-03T09:00:00Z,26.8015,-97.4706,0.0,13.2,346.0,16.6,'11111222,11111222,11111222' 
TCOON,ioos:station:TCOON:003:1,2011-11-03T10:00:00Z,26.8015,-97.4706,0.0,9.8,335.0,11.9,'11111222,11111222,11111222' 
TCOON,ioos:station:TCOON:003:1,2011-11-03T11:00:00Z,26.8015,-97.4706,0.0,11.8,337.0,14.0,'11111222,11111222,11111222' 
TCOON,ioos:station:TCOON:003:1,2011-11-03T12:00:00Z,26.8015,-97.4706,0.0,12.2,334.0,15.0,'11111222,11111222,11111222' 
TCOON,ioos:station:TCOON:003:1,2011-11-03T13:00:00Z,26.8015,-97.4706,0.0,14.4,335.0,16.5,'11111222,11111222,11111222' 
TCOON,ioos:station:TCOON:003:1,2011-11-03T14:00:00Z,26.8015,-97.4706,0.0,12.9,332.0,15.4,'11111222,11111222,11111222' 
TCOON,ioos:station:TCOON:003:1,2011-11-03T15:00:00Z,26.8015,-97.4706,0.0,11.5,328.0,13.0,'11111222,11111222,11111222' 
TCOON,ioos:station:TCOON:003:1,2011-11-03T16:00:00Z,26.8015,-97.4706,0.0,11.3,337.0,13.8,'11111222,11111222,11111222' 
TCOON,ioos:station:TCOON:003:1,2011-11-03T17:00:00Z,26.8015,-97.4706,0.0,9.8,329.0,13.3,'11111222,11111222,11111222' 
TCOON,ioos:station:TCOON:003:1,2011-11-03T18:00:00Z,26.8015,-97.4706,0.0,10.4,342.0,12.1,'11111222,11111222,11111222' 
TCOON,ioos:station:TCOON:003:1,2011-11-03T19:00:00Z,26.8015,-97.4706,0.0,9.9,339.0,11.3,'11111222,11111222,11111222' 
TCOON,ioos:station:TCOON:003:1,2011-11-03T20:00:00Z,26.8015,-97.4706,0.0,9.4,333.0,10.8,'11111222,11111222,11111222' 
TCOON,ioos:station:TCOON:003:1,2011-11-03T21:00:00Z,26.8015,-97.4706,0.0,7.7,342.0,8.6,'11111222,11111222,11111222' 
TCOON,ioos:station:TCOON:003:1,2011-11-03T22:00:00Z,26.8015,-97.4706,0.0,6.6,326.0,7.9,'11111222,11111222,11111222' 
TCOON,ioos:station:TCOON:003:1,2011-11-03T23:00:00Z,26.8015,-97.4706,0.0,5.9,325.0,6.7,'11111222,11111222,11111222' 
TCOON,ioos:station:TCOON:003:1,2011-11-04T00:00:00Z,26.8015,-97.4706,0.0,4.0,323.0,4.7,'11111222,11111222,11111222' 
TCOON,ioos:station:TCOON:003:1,2011-11-04T01:00:00Z,26.8015,-97.4706,0.0,3.0,308.0,3.4,'11111222,11111222,11111222' 
TCOON,ioos:station:TCOON:003:1,2011-11-04T02:00:00Z,26.8015,-97.4706,0.0,4.1,319.0,4.6,'11111222,11111222,11111222' 
TCOON,ioos:station:TCOON:003:1,2011-11-04T03:00:00Z,26.8015,-97.4706,0.0,4.4,317.0,5.0,'11111222,11111222,11111222' 
TCOON,ioos:station:TCOON:003:1,2011-11-04T04:00:00Z,26.8015,-97.4706,0.0,5.0,320.0,5.8,'11111222,11111222,11111222' 
TCOON,ioos:station:TCOON:003:1,2011-11-04T05:00:00Z,26.8015,-97.4706,0.0,4.7,312.0,5.6,'11111222,11111222,11111222' 
TCOON,ioos:station:TCOON:003:1,2011-11-04T06:00:00Z,26.8015,-97.4706,0.0,5.2,320.0,6.0,'11111222,11111222,11111222' 
TCOON,ioos:station:TCOON:003:1,2011-11-04T07:00:00Z,26.8015,-97.4706,0.0,4.8,318.0,5.8,'11111222,11111222,11111222' 
TCOON,ioos:station:TCOON:003:1,2011-11-04T08:00:00Z,26.8015,-97.4706,0.0,4.8,320.0,5.5,'11111222,11111222,11111222' 
TCOON,ioos:station:TCOON:003:1,2011-11-04T09:00:00Z,26.8015,-97.4706,0.0,4.5,317.0,5.5,'11111222,11111222,11111222' 
TCOON,ioos:station:TCOON:003:1,2011-11-04T10:00:00Z,26.8015,-97.4706,0.0,5.8,335.0,6.5,'11111222,11111222,11111222' 
TCOON,ioos:station:TCOON:003:1,2011-11-04T11:00:00Z,26.8015,-97.4706,0.0,5.1,331.0,6.0,'11111222,11111222,11111222' 
TCOON,ioos:station:TCOON:003:1,2011-11-04T12:00:00Z,26.8015,-97.4706,0.0,5.0,329.0,5.8,'11111222,11111222,11111222' 
TCOON,ioos:station:TCOON:003:1,2011-11-04T13:00:00Z,26.8015,-97.4706,0.0,5.6,320.0,6.3,'11111222,11111222,11111222' 
TCOON,ioos:station:TCOON:003:1,2011-11-04T14:00:00Z,26.8015,-97.4706,0.0,4.9,329.0,5.5,'11111222,11111222,11111222' 
TCOON,ioos:station:TCOON:003:1,2011-11-04T15:00:00Z,26.8015,-97.4706,0.0,6.6,343.0,7.0,'11111222,11111222,11111222' 
TCOON,ioos:station:TCOON:003:1,2011-11-04T16:00:00Z,26.8015,-97.4706,0.0,5.1,2.0,6.7,'11111222,11111222,11111222' 
TCOON,ioos:station:TCOON:003:1,2011-11-04T17:00:00Z,26.8015,-97.4706,0.0,4.8,14.0,6.7,'11111222,11111222,11111222' 
TCOON,ioos:station:TCOON:003:1,2011-11-04T18:00:00Z,26.8015,-97.4706,0.0,5.7,4.0,7.2,'11111222,11111222,11111222' 
TCOON,ioos:station:TCOON:003:1,2011-11-04T19:00:00Z,26.8015,-97.4706,0.0,5.4,37.0,7.3,'11111222,11111222,11111222' 
TCOON,ioos:station:TCOON:003:1,2011-11-04T20:00:00Z,26.8015,-97.4706,0.0,4.8,29.0,5.8,'11111222,11111222,11111222' 
TCOON,ioos:station:TCOON:003:1,2011-11-04T21:00:00Z,26.8015,-97.4706,0.0,4.3,26.0,5.9,'11111222,11111222,11111222' 
TCOON,ioos:station:TCOON:003:1,2011-11-04T22:00:00Z,26.8015,-97.4706,0.0,4.4,38.0,5.3,'11111222,11111222,11111222' 
TCOON,ioos:station:TCOON:003:1,2011-11-04T23:00:00Z,26.8015,-97.4706,0.0,2.8,48.0,3.4,'11111222,11111222,11111222' 
TCOON,ioos:station:TCOON:003:1,2011-11-05T00:00:00Z,26.8015,-97.4706,0.0,3.0,46.0,3.4,'11111222,11111222,11111222' 
TCOON,ioos:station:TCOON:003:1,2011-11-05T01:00:00Z,26.8015,-97.4706,0.0,2.3,58.0,2.6,'11111222,11111222,11111222' 
TCOON,ioos:station:TCOON:003:1,2011-11-05T02:00:00Z,26.8015,-97.4706,0.0,1.8,36.0,1.9,'11111222,11111222,11111222' 
TCOON,ioos:station:TCOON:003:1,2011-11-05T03:00:00Z,26.8015,-97.4706,0.0,2.6,94.0,2.9,'11111222,11111222,11111222' 
TCOON,ioos:station:TCOON:003:1,2011-11-05T04:00:00Z,26.8015,-97.4706,0.0,2.4,114.0,2.7,'11111222,11111222,11111222' 
TCOON,ioos:station:TCOON:003:1,2011-11-05T05:00:00Z,26.8015,-97.4706,0.0,1.9,135.0,2.0,'11111222,11111222,11111222' 
TCOON,ioos:station:TCOON:003:1,2011-11-05T06:00:00Z,26.8015,-97.4706,0.0,1.3,278.0,1.5,'11111222,11111222,11111222' 
TCOON,ioos:station:TCOON:003:1,2011-11-05T07:00:00Z,26.8015,-97.4706,0.0,0.8,333.0,0.9,'11111222,11111222,11111222' 
TCOON,ioos:station:TCOON:003:1,2011-11-05T08:00:00Z,26.8015,-97.4706,0.0,0.9,324.0,1.1,'11111222,11111222,11111222' 
TCOON,ioos:station:TCOON:003:1,2011-11-05T09:00:00Z,26.8015,-97.4706,0.0,1.1,39.0,1.2,'11111222,11111222,11111222' 
TCOON,ioos:station:TCOON:003:1,2011-11-05T10:00:00Z,26.8015,-97.4706,0.0,2.4,95.0,2.6,'11111222,11111222,11111222' 
TCOON,ioos:station:TCOON:003:1,2011-11-05T11:00:00Z,26.8015,-97.4706,0.0,2.8,91.0,3.2,'11111222,11111222,11111222' 
TCOON,ioos:station:TCOON:003:1,2011-11-05T12:00:00Z,26.8015,-97.4706,0.0,3.5,94.0,3.8,'11111222,11111222,11111222' 
TCOON,ioos:station:TCOON:003:1,2011-11-05T13:00:00Z,26.8015,-97.4706,0.0,5.1,104.0,5.7,'11111222,11111222,11111222' 
TCOON,ioos:station:TCOON:003:1,2011-11-05T14:00:00Z,26.8015,-97.4706,0.0,7.0,109.0,9.1,'11111222,11111222,11111222' 
TCOON,ioos:station:TCOON:003:1,2011-11-05T15:00:00Z,26.8015,-97.4706,0.0,7.1,113.0,8.0,'11111222,11111222,11111222' 
TCOON,ioos:station:TCOON:003:1,2011-11-05T16:00:00Z,26.8015,-97.4706,0.0,7.0,121.0,8.1,'11111222,11111222,11111222' 
TCOON,ioos:station:TCOON:003:1,2011-11-05T17:00:00Z,26.8015,-97.4706,0.0,7.2,131.0,8.7,'11111222,11111222,11111222' 
TCOON,ioos:station:TCOON:003:1,2011-11-05T18:00:00Z,26.8015,-97.4706,0.0,7.2,130.0,9.3,'11111222,11111222,11111222' 
TCOON,ioos:station:TCOON:003:1,2011-11-05T19:00:00Z,26.8015,-97.4706,0.0,8.5,133.0,9.8,'11111222,11111222,11111222' 
TCOON,ioos:station:TCOON:003:1,2011-11-05T20:00:00Z,26.8015,-97.4706,0.0,10.3,121.0,12.0,'11111222,11111222,11111222' 
TCOON,ioos:station:TCOON:003:1,2011-11-05T21:00:00Z,26.8015,-97.4706,0.0,9.6,128.0,12.0,'11111222,11111222,11111222' 
TCOON,ioos:station:TCOON:003:1,2011-11-05T22:00:00Z,26.8015,-97.4706,0.0,10.7,127.0,13.3,'11111222,11111222,11111222' 
TCOON,ioos:station:TCOON:003:1,2011-11-05T23:00:00Z,26.8015,-97.4706,0.0,9.2,128.0,11.7,'11111222,11111222,11111222' 
TCOON,ioos:station:TCOON:003:1,2011-11-06T00:00:00Z,26.8015,-97.4706,0.0,8.7,128.0,10.1,'11111222,11111222,11111222' 
TCOON,ioos:station:TCOON:003:1,2011-11-06T01:00:00Z,26.8015,-97.4706,0.0,10.2,129.0,12.0,'11111222,11111222,11111222' 
TCOON,ioos:station:TCOON:003:1,2011-11-06T02:00:00Z,26.8015,-97.4706,0.0,8.0,138.0,9.5,'11111222,11111222,11111222' 
TCOON,ioos:station:TCOON:003:1,2011-11-06T03:00:00Z,26.8015,-97.4706,0.0,7.6,140.0,8.9,'11111222,11111222,11111222' 
TCOON,ioos:station:TCOON:003:1,2011-11-06T04:00:00Z,26.8015,-97.4706,0.0,6.2,144.0,7.1,'11111222,11111222,11111222' 
TCOON,ioos:station:TCOON:003:1,2011-11-06T05:00:00Z,26.8015,-97.4706,0.0,5.5,140.0,6.3,'11111222,11111222,11111222' 
TCOON,ioos:station:TCOON:003:1,2011-11-06T06:00:00Z,26.8015,-97.4706,0.0,7.8,143.0,9.0,'11111222,11111222,11111222' 
TCOON,ioos:station:TCOON:003:1,2011-11-06T07:00:00Z,26.8015,-97.4706,0.0,6.2,134.0,7.0,'11111222,11111222,11111222' 
TCOON,ioos:station:TCOON:003:1,2011-11-06T08:00:00Z,26.8015,-97.4706,0.0,6.5,131.0,7.3,'11111222,11111222,11111222' 
TCOON,ioos:station:TCOON:003:1,2011-11-06T09:00:00Z,26.8015,-97.4706,0.0,6.1,134.0,6.8,'11111222,11111222,11111222' 
TCOON,ioos:station:TCOON:003:1,2011-11-06T10:00:00Z,26.8015,-97.4706,0.0,8.0,129.0,9.0,'11111222,11111222,11111222' 
TCOON,ioos:station:TCOON:003:1,2011-11-06T11:00:00Z,26.8015,-97.4706,0.0,7.0,129.0,8.2,'11111222,11111222,11111222' 
TCOON,ioos:station:TCOON:003:1,2011-11-06T12:00:00Z,26.8015,-97.4706,0.0,6.5,129.0,7.5,'11111222,11111222,11111222' 
TCOON,ioos:station:TCOON:003:1,2011-11-06T13:00:00Z,26.8015,-97.4706,0.0,7.8,126.0,8.9,'11111222,11111222,11111222' 
TCOON,ioos:station:TCOON:003:1,2011-11-06T14:00:00Z,26.8015,-97.4706,0.0,7.2,121.0,8.7,'11111222,11111222,11111222' 
TCOON,ioos:station:TCOON:003:1,2011-11-06T15:00:00Z,26.8015,-97.4706,0.0,7.9,125.0,8.8,'11111222,11111222,11111222' 
TCOON,ioos:station:TCOON:003:1,2011-11-06T16:00:00Z,26.8015,-97.4706,0.0,8.5,118.0,10.6,'11111222,11111222,11111222' 
TCOON,ioos:station:TCOON:003:1,2011-11-06T17:00:00Z,26.8015,-97.4706,0.0,8.8,119.0,11.1,'11111222,11111222,11111222' 
TCOON,ioos:station:TCOON:003:1,2011-11-06T18:00:00Z,26.8015,-97.4706,0.0,10.1,121.0,11.3,'11111222,11111222,11111222' 
TCOON,ioos:station:TCOON:003:1,2011-11-06T19:00:00Z,26.8015,-97.4706,0.0,10.6,124.0,13.1,'11111222,11111222,11111222' 
TCOON,ioos:station:TCOON:003:1,2011-11-06T20:00:00Z,26.8015,-97.4706,0.0,9.8,123.0,12.3,'11111222,11111222,11111222' 
TCOON,ioos:station:TCOON:003:1,2011-11-06T21:00:00Z,26.8015,-97.4706,0.0,8.7,123.0,10.1,'11111222,11111222,11111222' 
TCOON,ioos:station:TCOON:003:1,2011-11-06T22:00:00Z,26.8015,-97.4706,0.0,8.6,125.0,9.9,'11111222,11111222,11111222' 
TCOON,ioos:station:TCOON:003:1,2011-11-06T23:00:00Z,26.8015,-97.4706,0.0,8.6,124.0,9.9,'11111222,11111222,11111222' 
TCOON,ioos:station:TCOON:003:1,2011-11-07T00:00:00Z,26.8015,-97.4706,0.0,7.9,121.0,9.5,'11111222,11111222,11111222' 
TCOON,ioos:station:TCOON:003:1,2011-11-07T01:00:00Z,26.8015,-97.4706,0.0,7.7,120.0,9.7,'11111222,11111222,11111222' 
TCOON,ioos:station:TCOON:003:1,2011-11-07T02:00:00Z,26.8015,-97.4706,0.0,8.7,127.0,10.5,'11111222,11111222,11111222' 
TCOON,ioos:station:TCOON:003:1,2011-11-07T03:00:00Z,26.8015,-97.4706,0.0,8.1,126.0,9.8,'11111222,11111222,11111222' 
TCOON,ioos:station:TCOON:003:1,2011-11-07T04:00:00Z,26.8015,-97.4706,0.0,5.6,144.0,6.3,'11111222,11111222,11111222' 
TCOON,ioos:station:TCOON:003:1,2011-11-07T06:00:00Z,26.8015,-97.4706,0.0,6.4,148.0,7.1,'11111222,11111222,11111222' 
TCOON,ioos:station:TCOON:003:1,2011-11-07T07:00:00Z,26.8015,-97.4706,0.0,6.2,139.0,7.1,'11111222,11111222,11111222' 
TCOON,ioos:station:TCOON:003:1,2011-11-07T08:00:00Z,26.8015,-97.4706,0.0,6.4,129.0,7.5,'11111222,11111222,11111222' 
TCOON,ioos:station:TCOON:003:1,2011-11-07T09:00:00Z,26.8015,-97.4706,0.0,7.1,132.0,8.1,'11111222,11111222,11111222' 
TCOON,ioos:station:TCOON:003:1,2011-11-07T10:00:00Z,26.8015,-97.4706,0.0,6.5,134.0,7.5,'11111222,11111222,11111222' 
TCOON,ioos:station:TCOON:003:1,2011-11-07T11:00:00Z,26.8015,-97.4706,0.0,6.9,130.0,7.8,'11111222,11111222,11111222' 
TCOON,ioos:station:TCOON:003:1,2011-11-07T12:00:00Z,26.8015,-97.4706,0.0,6.4,135.0,7.9,'11111222,11111222,11111222' 
TCOON,ioos:station:TCOON:003:1,2011-11-07T13:00:00Z,26.8015,-97.4706,0.0,7.5,135.0,9.0,'11111222,11111222,11111222' 
TCOON,ioos:station:TCOON:003:1,2011-11-07T14:00:00Z,26.8015,-97.4706,0.0,8.2,140.0,10.2,'11111222,11111222,11111222' 
TCOON,ioos:station:TCOON:003:1,2011-11-07T15:00:00Z,26.8015,-97.4706,0.0,7.6,152.0,9.1,'11111222,11111222,11111222' 
TCOON,ioos:station:TCOON:003:1,2011-11-07T16:00:00Z,26.8015,-97.4706,0.0,8.1,162.0,9.4,'11111222,11111222,11111222' 
TCOON,ioos:station:TCOON:003:1,2011-11-07T17:00:00Z,26.8015,-97.4706,0.0,9.7,150.0,11.3,'11111222,11111222,11111222' 
TCOON,ioos:station:TCOON:003:1,2011-11-07T18:00:00Z,26.8015,-97.4706,0.0,9.5,152.0,10.8,'11111222,11111222,11111222' 
TCOON,ioos:station:TCOON:003:1,2011-11-07T19:00:00Z,26.8015,-97.4706,0.0,9.6,146.0,12.2,'11111222,11111222,11111222' 
TCOON,ioos:station:TCOON:003:1,2011-11-07T20:00:00Z,26.8015,-97.4706,0.0,9.5,142.0,11.2,'11111222,11111222,11111222' 
TCOON,ioos:station:TCOON:003:1,2011-11-07T21:00:00Z,26.8015,-97.4706,0.0,11.8,129.0,14.4,'11111222,11111222,11111222' 
TCOON,ioos:station:TCOON:003:1,2011-11-07T22:00:00Z,26.8015,-97.4706,0.0,10.1,142.0,11.6,'11111222,11111222,11111222' 
TCOON,ioos:station:TCOON:003:1,2011-11-07T23:00:00Z,26.8015,-97.4706,0.0,7.7,141.0,9.2,'11111222,11111222,11111222' 
TCOON,ioos:station:TCOON:003:1,2011-11-08T00:00:00Z,26.8015,-97.4706,0.0,7.5,132.0,8.9,'11111222,11111222,11111222' 
TCOON,ioos:station:TCOON:003:1,2011-11-08T01:00:00Z,26.8015,-97.4706,0.0,7.5,133.0,8.8,'11111222,11111222,11111222' 
TCOON,ioos:station:TCOON:003:1,2011-11-08T02:00:00Z,26.8015,-97.4706,0.0,6.8,135.0,7.8,'11111222,11111222,11111222' 
TCOON,ioos:station:TCOON:003:1,2011-11-08T03:00:00Z,26.8015,-97.4706,0.0,6.6,133.0,7.9,'11111222,11111222,11111222' 
TCOON,ioos:station:TCOON:003:1,2011-11-08T04:00:00Z,26.8015,-97.4706,0.0,7.0,143.0,7.9,'11111222,11111222,11111222' 
TCOON,ioos:station:TCOON:003:1,2011-11-08T05:00:00Z,26.8015,-97.4706,0.0,5.6,148.0,6.9,'11111222,11111222,11111222' 
TCOON,ioos:station:TCOON:003:1,2011-11-08T06:00:00Z,26.8015,-97.4706,0.0,6.1,150.0,7.0,'11111222,11111222,11111222' 
TCOON,ioos:station:TCOON:003:1,2011-11-08T07:00:00Z,26.8015,-97.4706,0.0,5.9,157.0,6.6,'11111222,11111222,11111222' 
TCOON,ioos:station:TCOON:003:1,2011-11-08T08:00:00Z,26.8015,-97.4706,0.0,6.1,155.0,7.3,'11111222,11111222,11111222' 
TCOON,ioos:station:TCOON:003:1,2011-11-08T09:00:00Z,26.8015,-97.4706,0.0,6.1,155.0,7.7,'11111222,11111222,11111222' 
TCOON,ioos:station:TCOON:003:1,2011-11-08T10:00:00Z,26.8015,-97.4706,0.0,6.5,169.0,7.5,'11111222,11111222,11111222' 
TCOON,ioos:station:TCOON:003:1,2011-11-08T11:00:00Z,26.8015,-97.4706,0.0,5.7,148.0,6.3,'11111222,11111222,11111222' 
TCOON,ioos:station:TCOON:003:1,2011-11-08T12:00:00Z,26.8015,-97.4706,0.0,4.9,160.0,5.7,'11111222,11111222,11111222' 
TCOON,ioos:station:TCOON:003:1,2011-11-08T13:00:00Z,26.8015,-97.4706,0.0,6.2,151.0,7.1,'11111222,11111222,11111222' 
TCOON,ioos:station:TCOON:003:1,2011-11-08T14:00:00Z,26.8015,-97.4706,0.0,6.7,151.0,7.6,'11111222,11111222,11111222' 
TCOON,ioos:station:TCOON:003:1,2011-11-08T15:00:00Z,26.8015,-97.4706,0.0,7.4,143.0,8.7,'11111222,11111222,11111222' 
TCOON,ioos:station:TCOON:003:1,2011-11-08T16:00:00Z,26.8015,-97.4706,0.0,7.7,145.0,9.1,'11111222,11111222,11111222' 
TCOON,ioos:station:TCOON:003:1,2011-11-08T17:00:00Z,26.8015,-97.4706,0.0,9.5,138.0,11.2,'11111222,11111222,11111222' 
TCOON,ioos:station:TCOON:003:1,2011-11-08T18:00:00Z,26.8015,-97.4706,0.0,9.4,142.0,10.5,'11111222,11111222,11111222' 
TCOON,ioos:station:TCOON:003:1,2011-11-08T19:00:00Z,26.8015,-97.4706,0.0,8.6,139.0,10.0,'11111222,11111222,11111222' 
TCOON,ioos:station:TCOON:003:1,2011-11-08T20:00:00Z,26.8015,-97.4706,0.0,9.8,124.0,11.7,'11111222,11111222,11111222' 
TCOON,ioos:station:TCOON:003:1,2011-11-08T21:00:00Z,26.8015,-97.4706,0.0,10.1,123.0,12.3,'11111222,11111222,11111222' 
TCOON,ioos:station:TCOON:003:1,2011-11-08T22:00:00Z,26.8015,-97.4706,0.0,9.1,134.0,10.7,'11111222,11111222,11111222' 
TCOON,ioos:station:TCOON:003:1,2011-11-08T23:00:00Z,26.8015,-97.4706,0.0,8.1,132.0,9.0,'11111222,11111222,11111222' 
TCOON,ioos:station:TCOON:003:1,2011-11-09T00:00:00Z,26.8015,-97.4706,0.0,6.8,133.0,8.3,'11111222,11111222,11111222' 
TCOON,ioos:station:TCOON:003:1,2011-11-09T01:00:00Z,26.8015,-97.4706,0.0,4.9,141.0,5.5,'11111222,11111222,11111222' 
TCOON,ioos:station:TCOON:003:1,2011-11-09T02:00:00Z,26.8015,-97.4706,0.0,3.0,170.0,3.5,'11111222,11111222,11111222' 
TCOON,ioos:station:TCOON:003:1,2011-11-09T03:00:00Z,26.8015,-97.4706,0.0,1.7,192.0,1.9,'11111222,11111222,11111222' 
TCOON,ioos:station:TCOON:003:1,2011-11-09T04:00:00Z,26.8015,-97.4706,0.0,2.2,282.0,2.3,'11111222,11111222,11111222' 
TCOON,ioos:station:TCOON:003:1,2011-11-09T05:00:00Z,26.8015,-97.4706,0.0,5.1,331.0,5.7,'11111222,11111222,11111222' 
TCOON,ioos:station:TCOON:003:1,2011-11-09T06:00:00Z,26.8015,-97.4706,0.0,3.9,352.0,4.4,'11111222,11111222,11111222' 
TCOON,ioos:station:TCOON:003:1,2011-11-09T07:00:00Z,26.8015,-97.4706,0.0,7.2,4.0,8.3,'11111222,11111222,11111222' 
TCOON,ioos:station:TCOON:003:1,2011-11-09T08:00:00Z,26.8015,-97.4706,0.0,10.2,7.0,11.9,'11111222,11111222,11111222' 
TCOON,ioos:station:TCOON:003:1,2011-11-09T09:00:00Z,26.8015,-97.4706,0.0,10.1,358.0,11.9,'11111222,11111222,11111222' 
TCOON,ioos:station:TCOON:003:1,2011-11-09T10:00:00Z,26.8015,-97.4706,0.0,11.0,360.0,13.3,'11111222,11144222,11111222' 
TCOON,ioos:station:TCOON:003:1,2011-11-09T11:00:00Z,26.8015,-97.4706,0.0,11.0,7.0,13.6,'11111222,11111222,11111222' 